Location: Newark
(35.2672°N, 80.7344°W)
Time: 01:25:22
(UTC+00:00)

Tiros 1 - Pass Details

Date: 28 January 2020
Orbit: 631 x 664 km, 48.4° (Epoch: 19 February)

Event Time Altitude Azimuth Distance (km) Brightness Sun altitude
Rises 01:11:45 0° 285° (WNW) 2,982 11.6 -29.8°
Reaches altitude 10° 01:15:35 10° 254° (WSW) 2,070 10.6 -30.6°
Maximum altitude 01:17:21 12° 232° (SW) 1,943 10.2 -31.0°
Drops below altitude 10° 01:19:06 10° 211° (SSW) 2,069 10.1 -31.3°
Enters shadow 01:20:57 - 193° (SSW) 2,430 10.2 -31.7°
Sets 01:22:56 0° 180° (S) 2,977 - -32.1°
